| time (UTC) | temp F | wind direction | speed MPH | gust MPH | rain 1hr in | rain 24hr in | rain mn in | humidity % | barometer mb |
| 20260903003616 | 68 | 141 | 0.0 | 2.0 | 0.00 | 0.27 | 0.27 | 96 | 1018.0 |
| 20260903003421 | 68 | 141 | 1.0 | 2.0 | 0.00 | 0.27 | 0.27 | 96 | 1018.0 |
| 20260903003114 | 68 | 141 | 1.0 | 1.0 | 0.00 | 0.27 | 0.27 | 96 | 1018.0 |
| 20260903002919 | 68 | 141 | 0.0 | 1.0 | 0.00 | 0.27 | 0.27 | 97 | 1018.0 |
| 20260903002613 | 68 | 141 | 0.0 | 1.0 | 0.00 | 0.27 | 0.27 | 97 | 1018.2 |
| 20260903002424 | 68 | 141 | 0.0 | 1.0 | 0.00 | 0.27 | 0.27 | 97 | 1018.2 |
| 20260903002119 | 68 | 141 | 0.0 | 1.0 | 0.00 | 0.27 | 0.27 | 96 | 1018.1 |
| 20260903001924 | 68 | 141 | 0.0 | 1.0 | 0.00 | 0.27 | 0.27 | 96 | 1018.1 |
| 20260903001644 | 68 | 141 | 0.0 | 1.0 | 0.00 | 0.27 | 0.27 | 96 | 1018.0 |
| 20260903001407 | 68 | 141 | 0.0 | 1.0 | 0.00 | 0.27 | 0.27 | 96 | 1018.0 |
| 20260903001121 | 68 | 141 | 0.0 | 1.0 | 0.00 | 0.27 | 0.27 | 96 | 1018.0 |
| 20260903000906 | 68 | 141 | 0.0 | 1.0 | 0.00 | 0.27 | 0.27 | 96 | 1018.0 |
| 20260903000620 | 68 | 141 | 0.0 | 1.0 | 0.00 | 0.27 | 0.27 | 96 | 1017.9 |
| 20260903000405 | 68 | 141 | 0.0 | 1.0 | 0.00 | 0.27 | 0.27 | 97 | 1017.9 |
| 20260903000126 | 68 | 141 | 0.0 | 1.0 | 0.00 | 0.27 | 0.27 | 97 | 1017.8 |
| 20260902235931 | 67 | 141 | 0.0 | 1.0 | 0.00 | 0.27 | 0.27 | 96 | 1017.7 |
| 20260902235629 | 67 | 141 | 0.0 | 1.0 | 0.00 | 0.27 | 0.27 | 96 | 1017.5 |
| 20260902235408 | 68 | 141 | 0.0 | 1.0 | 0.00 | 0.27 | 0.27 | 96 | 1017.5 |
| 20260902235109 | 67 | 141 | 0.0 | 1.0 | 0.00 | 0.27 | 0.27 | 96 | 1017.4 |
| 20260902234914 | 68 | 141 | 0.0 | 1.0 | 0.00 | 0.27 | 0.27 | 96 | 1017.3 |
| 20260902234608 | 67 | 141 | 0.0 | 1.0 | 0.00 | 0.27 | 0.27 | 96 | 1017.4 |
| 20260902234413 | 67 | 141 | 0.0 | 1.0 | 0.00 | 0.27 | 0.27 | 96 | 1017.4 |
| 20260902234108 | 67 | 141 | 0.0 | 1.0 | 0.00 | 0.27 | 0.27 | 96 | 1017.4 |
| 20260902233919 | 67 | 141 | 0.0 | 0.0 | 0.00 | 0.27 | 0.27 | 96 | 1017.4 |
| 20260902233613 | 67 | 141 | 0.0 | 0.0 | 0.00 | 0.27 | 0.27 | 96 | 1017.4 |
| 20260902233418 | 67 | 141 | 0.0 | 1.0 | 0.00 | 0.27 | 0.27 | 96 | 1017.4 |
| 20260902233113 | 67 | 141 | 0.0 | 1.0 | 0.00 | 0.27 | 0.27 | 96 | 1017.4 |
| 20260902232918 | 68 | 141 | 0.0 | 1.0 | 0.00 | 0.27 | 0.27 | 96 | 1017.4 |
| 20260902232611 | 67 | 141 | 0.0 | 1.0 | 0.00 | 0.27 | 0.27 | 96 | 1017.4 |
| 20260902232422 | 68 | 141 | 0.0 | 2.0 | 0.00 | 0.27 | 0.27 | 96 | 1017.4 |
| 20260902232115 | 67 | 141 | 0.0 | 2.0 | 0.00 | 0.27 | 0.27 | 96 | 1017.6 |
| 20260902231948 | 67 | 141 | 0.0 | 2.0 | 0.00 | 0.27 | 0.27 | 96 | 1017.6 |
| 20260902231620 | 67 | 141 | 1.0 | 2.0 | 0.00 | 0.27 | 0.27 | 96 | 1017.5 |
| 20260902231405 | 68 | 141 | 1.0 | 2.0 | 0.00 | 0.27 | 0.27 | 96 | 1017.5 |
| 20260902231147 | 68 | 141 | 1.0 | 2.0 | 0.00 | 0.27 | 0.27 | 96 | 1017.5 |
| 20260902230904 | 68 | 141 | 1.0 | 2.0 | 0.00 | 0.27 | 0.27 | 96 | 1017.6 |
| 20260902230605 | 68 | 141 | 0.0 | 2.0 | 0.00 | 0.27 | 0.27 | 96 | 1017.6 |
| 20260902230426 | 68 | 141 | 0.0 | 2.0 | 0.00 | 0.27 | 0.27 | 96 | 1017.6 |
| 20260902230130 | 68 | 141 | 0.0 | 2.0 | 0.00 | 0.27 | 0.27 | 96 | 1017.5 |
| 20260902225911 | 68 | 141 | 1.0 | 2.0 | 0.00 | 0.27 | 0.27 | 96 | 1017.5 |
| 20260902225609 | 68 | 141 | 0.0 | 3.0 | 0.00 | 0.27 | 0.27 | 96 | 1017.5 |
| 20260902225410 | 68 | 141 | 0.0 | 3.0 | 0.00 | 0.27 | 0.27 | 96 | 1017.5 |
| 20260902225128 | 68 | 141 | 1.0 | 3.0 | 0.00 | 0.27 | 0.27 | 96 | 1017.6 |
| 20260902224914 | 68 | 141 | 1.0 | 5.0 | 0.00 | 0.49 | 0.27 | 96 | 1017.6 |
| 20260902224611 | 68 | 139 | 2.0 | 5.0 | 0.00 | 0.49 | 0.27 | 96 | 1017.6 |
| 20260902224411 | 68 | 154 | 2.0 | 5.0 | 0.00 | 0.49 | 0.27 | 96 | 1017.6 |
| 20260902224135 | 68 | 129 | 1.0 | 4.0 | 0.00 | 0.49 | 0.27 | 96 | 1017.6 |
| 20260902223915 | 68 | 129 | 1.0 | 4.0 | 0.00 | 0.49 | 0.27 | 96 | 1017.7 |
| 20260902223613 | 68 | 129 | 2.0 | 3.0 | 0.00 | 0.49 | 0.27 | 96 | 1017.8 |
| 20260902223413 | 68 | 131 | 0.0 | 2.0 | 0.00 | 0.49 | 0.27 | 96 | 1017.9 |
| 20260902223112 | 68 | 132 | 0.0 | 2.0 | 0.00 | 0.49 | 0.27 | 96 | 1018.0 |
| 20260902222940 | 68 | 132 | 1.0 | 2.0 | 0.00 | 0.49 | 0.27 | 96 | 1018.1 |
| 20260902222617 | 68 | 131 | 0.0 | 0.0 | 0.00 | 0.49 | 0.27 | 96 | 1018.1 |
| 20260902222445 | 68 | 131 | 0.0 | 0.0 | 0.00 | 0.49 | 0.27 | 96 | 1018.1 |
| 20260902222144 | 68 | 131 | 0.0 | 0.0 | 0.00 | 0.49 | 0.27 | 96 | 1018.2 |
| 20260902221931 | 68 | 131 | 0.0 | 0.0 | 0.00 | 0.49 | 0.27 | 96 | 1018.2 |
| 20260902221608 | 68 | 131 | 0.0 | 0.0 | 0.00 | 0.49 | 0.27 | 96 | 1018.2 |
| 20260902221430 | 68 | 131 | 0.0 | 1.0 | 0.00 | 0.49 | 0.27 | 96 | 1018.1 |
| 20260902221108 | 68 | 131 | 0.0 | 4.0 | 0.00 | 0.49 | 0.27 | 96 | 1018.0 |
| 20260902220915 | 68 | 131 | 0.0 | 4.0 | 0.00 | 0.49 | 0.27 | 96 | 1018.0 |
| 20260902220613 | 68 | 131 | 1.0 | 4.0 | 0.00 | 0.49 | 0.27 | 96 | 1018.1 |
| 20260902220414 | 68 | 131 | 1.0 | 4.0 | 0.00 | 0.49 | 0.27 | 96 | 1018.1 |
| 20260902220133 | 68 | 124 | 1.0 | 3.0 | 0.00 | 0.49 | 0.27 | 96 | 1018.2 |
| 20260902215919 | 68 | 124 | 1.0 | 3.0 | 0.00 | 0.49 | 0.27 | 96 | 1018.2 |
| 20260902215639 | 68 | 124 | 1.0 | 3.0 | 0.00 | 0.49 | 0.27 | 96 | 1018.2 |
| 20260902215419 | 68 | 124 | 1.0 | 3.0 | 0.00 | 0.49 | 0.27 | 96 | 1018.1 |
| 20260902215123 | 68 | 124 | 2.0 | 3.0 | 0.00 | 0.49 | 0.27 | 96 | 1018.1 |
| 20260902214924 | 68 | 124 | 1.0 | 3.0 | 0.00 | 0.49 | 0.27 | 97 | 1018.1 |
| 20260902214622 | 68 | 125 | 1.0 | 3.0 | 0.00 | 0.49 | 0.27 | 97 | 1018.2 |
| 20260902214423 | 68 | 125 | 1.0 | 3.0 | 0.00 | 0.49 | 0.27 | 96 | 1018.2 |
| 20260902214121 | 68 | 125 | 1.0 | 3.0 | 0.00 | 0.49 | 0.27 | 96 | 1018.3 |
| 20260902213928 | 68 | 122 | 0.0 | 3.0 | 0.00 | 0.49 | 0.27 | 96 | 1018.3 |
| 20260902213627 | 68 | 121 | 1.0 | 3.0 | 0.00 | 0.49 | 0.27 | 96 | 1018.4 |
| 20260902213407 | 68 | 121 | 2.0 | 3.0 | 0.00 | 0.49 | 0.27 | 96 | 1018.4 |
| 20260902213106 | 68 | 121 | 1.0 | 3.0 | 0.00 | 0.49 | 0.27 | 96 | 1018.4 |
| 20260902212907 | 68 | 121 | 1.0 | 3.0 | 0.00 | 0.49 | 0.27 | 96 | 1018.3 |
| 20260902212605 | 68 | 121 | 0.0 | 2.0 | 0.00 | 0.49 | 0.27 | 97 | 1018.2 |
| 20260902212406 | 68 | 121 | 1.0 | 2.0 | 0.00 | 0.49 | 0.27 | 97 | 1018.3 |
| 20260902212111 | 68 | 119 | 1.0 | 3.0 | 0.00 | 0.49 | 0.27 | 96 | 1018.3 |
| 20260902211911 | 68 | 119 | 1.0 | 3.0 | 0.00 | 0.49 | 0.27 | 96 | 1018.2 |
| 20260902211609 | 68 | 119 | 2.0 | 3.0 | 0.00 | 0.49 | 0.27 | 96 | 1018.2 |
| 20260902211437 | 68 | 119 | 1.0 | 3.0 | 0.00 | 0.49 | 0.27 | 97 | 1018.3 |
| 20260902211114 | 68 | 119 | 1.0 | 3.0 | 0.00 | 0.49 | 0.27 | 96 | 1018.2 |
| 20260902210915 | 68 | 119 | 0.0 | 2.0 | 0.00 | 0.49 | 0.27 | 97 | 1018.2 |
| 20260902210614 | 68 | 119 | 1.0 | 2.0 | 0.00 | 0.49 | 0.27 | 97 | 1018.2 |
| 20260902210415 | 68 | 119 | 1.0 | 2.0 | 0.00 | 0.49 | 0.27 | 97 | 1018.3 |
| 20260902210119 | 68 | 118 | 1.0 | 2.0 | 0.00 | 0.49 | 0.27 | 97 | 1018.2 |
| 20260902205920 | 68 | 118 | 0.0 | 2.0 | 0.00 | 0.49 | 0.27 | 97 | 1018.2 |
| 20260902205635 | 68 | 118 | 0.0 | 3.0 | 0.00 | 0.49 | 0.27 | 97 | 1018.1 |
| 20260902205426 | 68 | 118 | 0.0 | 4.0 | 0.00 | 0.49 | 0.27 | 97 | 1018.1 |
| 20260902205107 | 68 | 118 | 1.0 | 4.0 | 0.00 | 0.49 | 0.27 | 97 | 1018.1 |
| 20260902204906 | 68 | 118 | 1.0 | 4.0 | 0.00 | 0.49 | 0.27 | 97 | 1018.2 |
| 20260902204604 | 68 | 110 | 1.0 | 2.0 | 0.00 | 0.49 | 0.27 | 97 | 1018.2 |
| 20260902204404 | 68 | 110 | 1.0 | 2.0 | 0.00 | 0.49 | 0.27 | 97 | 1018.3 |
| 20260902204125 | 68 | 110 | 1.0 | 2.0 | 0.00 | 0.49 | 0.27 | 97 | 1018.3 |
| 20260902203930 | 68 | 110 | 1.0 | 3.0 | 0.00 | 0.49 | 0.27 | 97 | 1018.2 |
| 20260902203623 | 68 | 110 | 1.0 | 3.0 | 0.00 | 0.49 | 0.27 | 97 | 1018.2 |
| 20260902203407 | 68 | 110 | 1.0 | 3.0 | 0.00 | 0.49 | 0.27 | 97 | 1018.2 |
| 20260902203128 | 68 | 110 | 1.0 | 4.0 | 0.00 | 0.49 | 0.27 | 97 | 1018.2 |
| 20260902202913 | 68 | 110 | 1.0 | 4.0 | 0.00 | 0.49 | 0.27 | 97 | 1018.2 |
| 20260902202606 | 68 | 110 | 2.0 | 4.0 | 0.00 | 0.49 | 0.27 | 97 | 1018.2 |
| 20260902202411 | 68 | 110 | 1.0 | 4.0 | 0.00 | 0.49 | 0.27 | 97 | 1018.2 |
| 20260902202105 | 68 | 112 | 1.0 | 4.0 | 0.00 | 0.49 | 0.27 | 97 | 1018.1 |
| 20260902201910 | 68 | 112 | 2.0 | 4.0 | 0.00 | 0.49 | 0.27 | 97 | 1018.1 |
| 20260902201611 | 68 | 134 | 1.0 | 4.0 | 0.00 | 0.49 | 0.27 | 97 | 1018.0 |
| 20260902201437 | 68 | 6 | 1.0 | 2.0 | 0.00 | 0.49 | 0.27 | 97 | 1018.0 |
| 20260902201118 | 68 | 6 | 2.0 | 2.0 | 0.00 | 0.49 | 0.27 | 97 | 1018.0 |
| 20260902200921 | 68 | 6 | 1.0 | 3.0 | 0.00 | 0.49 | 0.27 | 97 | 1018.0 |
| 20260902200616 | 68 | 6 | 1.0 | 3.0 | 0.00 | 0.49 | 0.27 | 97 | 1018.1 |
| 20260902200420 | 68 | 6 | 1.0 | 3.0 | 0.00 | 0.49 | 0.27 | 97 | 1018.1 |
| 20260902200114 | 68 | 6 | 1.0 | 3.0 | 0.00 | 0.49 | 0.27 | 97 | 1018.2 |
| 20260902195925 | 68 | 6 | 0.0 | 3.0 | 0.00 | 0.49 | 0.27 | 97 | 1018.3 |
| 20260902195619 | 68 | 6 | 1.0 | 3.0 | 0.03 | 0.49 | 0.27 | 98 | 1018.1 |
| 20260902195423 | 68 | 6 | 1.0 | 2.0 | 0.06 | 0.49 | 0.27 | 98 | 1018.0 |
| 20260902195117 | 68 | 6 | 0.0 | 2.0 | 0.08 | 0.49 | 0.27 | 98 | 1018.1 |
| 20260902194921 | 68 | 6 | 0.0 | 2.0 | 0.12 | 0.49 | 0.27 | 98 | 1018.2 |
| 20260902194615 | 68 | 6 | 1.0 | 2.0 | 0.18 | 0.49 | 0.27 | 98 | 1018.2 |
| 20260902194426 | 67 | 6 | 0.0 | 2.0 | 0.19 | 0.49 | 0.27 | 97 | 1018.3 |
| 20260902194121 | 67 | 6 | 0.0 | 2.0 | 0.20 | 0.49 | 0.27 | 97 | 1018.4 |
| 20260902193906 | 67 | 6 | 1.0 | 2.0 | 0.21 | 0.49 | 0.27 | 97 | 1018.5 |
| 20260902193620 | 67 | 6 | 1.0 | 2.0 | 0.23 | 0.49 | 0.27 | 97 | 1018.6 |
| 20260902193405 | 67 | 6 | 0.0 | 2.0 | 0.25 | 0.49 | 0.27 | 97 | 1018.5 |
| 20260902193125 | 67 | 6 | 0.0 | 2.0 | 0.25 | 0.49 | 0.27 | 97 | 1018.5 |
| 20260902192912 | 67 | 6 | 1.0 | 2.0 | 0.25 | 0.49 | 0.27 | 97 | 1018.6 |
| 20260902192605 | 67 | 6 | 0.0 | 2.0 | 0.25 | 0.49 | 0.27 | 97 | 1018.6 |
| 20260902192410 | 67 | 6 | 1.0 | 2.0 | 0.25 | 0.49 | 0.27 | 97 | 1018.6 |
| 20260902192126 | 67 | 6 | 1.0 | 2.0 | 0.25 | 0.49 | 0.27 | 97 | 1018.7 |
| 20260902191936 | 67 | 6 | 1.0 | 2.0 | 0.25 | 0.49 | 0.27 | 97 | 1018.7 |
| 20260902191609 | 67 | 6 | 1.0 | 2.0 | 0.25 | 0.49 | 0.27 | 97 | 1018.8 |
| 20260902191420 | 67 | 6 | 1.0 | 2.0 | 0.25 | 0.49 | 0.27 | 97 | 1018.8 |
| 20260902191115 | 67 | 6 | 1.0 | 3.0 | 0.25 | 0.49 | 0.27 | 97 | 1018.9 |
| 20260902190920 | 67 | 6 | 1.0 | 4.0 | 0.25 | 0.49 | 0.27 | 97 | 1018.9 |
| 20260902190614 | 67 | 6 | 1.0 | 4.0 | 0.25 | 0.49 | 0.27 | 97 | 1018.9 |
| 20260902190419 | 67 | 6 | 1.0 | 4.0 | 0.25 | 0.49 | 0.27 | 97 | 1018.9 |
| 20260902190140 | 67 | 6 | 2.0 | 4.0 | 0.25 | 0.49 | 0.27 | 97 | 1019.0 |
| 20260902185925 | 67 | 6 | 3.0 | 4.0 | 0.25 | 0.49 | 0.27 | 96 | 1019.1 |
| 20260902185625 | 67 | 3 | 1.0 | 6.0 | 0.22 | 0.46 | 0.24 | 96 | 1019.3 |
| 20260902185410 | 67 | 3 | 2.0 | 6.0 | 0.19 | 0.43 | 0.21 | 96 | 1019.4 |
| 20260902185123 | 67 | 3 | 2.0 | 6.0 | 0.16 | 0.40 | 0.19 | 96 | 1019.4 |
| 20260902184908 | 67 | 3 | 3.0 | 6.0 | 0.12 | 0.36 | 0.14 | 96 | 1019.4 |
| 20260902184648 | 67 | 2 | 2.0 | 5.0 | 0.07 | 0.31 | 0.09 | 96 | 1019.5 |
| 20260902184412 | 67 | 356 | 3.0 | 5.0 | 0.06 | 0.30 | 0.08 | 95 | 1019.5 |
| 20260902184107 | 67 | 360 | 1.0 | 9.0 | 0.05 | 0.29 | 0.07 | 95 | 1019.5 |
| 20260902183912 | 67 | 360 | 2.0 | 9.0 | 0.04 | 0.28 | 0.06 | 95 | 1019.5 |
| 20260902183604 | 67 | 4 | 5.0 | 9.0 | 0.01 | 0.25 | 0.03 | 95 | 1019.6 |
| 20260902183432 | 67 | 335 | 5.0 | 9.0 | 0.00 | 0.24 | 0.02 | 95 | 1019.5 |
| 20260902183110 | 67 | 356 | 4.0 | 6.0 | 0.00 | 0.24 | 0.02 | 95 | 1019.3 |
| 20260902182910 | 68 | 80 | 3.0 | 4.0 | 0.00 | 0.24 | 0.02 | 95 | 1019.1 |
| 20260902182609 | 67 | 108 | 1.0 | 3.0 | 0.00 | 0.24 | 0.02 | 95 | 1019.1 |
| 20260902182417 | 67 | 109 | 0.0 | 2.0 | 0.00 | 0.24 | 0.02 | 95 | 1019.0 |
| 20260902182114 | 67 | 109 | 0.0 | 2.0 | 0.00 | 0.24 | 0.02 | 94 | 1019.1 |
| 20260902181915 | 67 | 109 | 0.0 | 2.0 | 0.00 | 0.24 | 0.02 | 94 | 1019.0 |
| 20260902181614 | 67 | 109 | 1.0 | 2.0 | 0.00 | 0.24 | 0.02 | 94 | 1019.0 |
| 20260902181415 | 67 | 109 | 1.0 | 2.0 | 0.00 | 0.24 | 0.02 | 94 | 1019.0 |
| 20260902181118 | 67 | 109 | 1.0 | 2.0 | 0.00 | 0.24 | 0.02 | 94 | 1019.1 |
| 20260902180919 | 68 | 109 | 1.0 | 2.0 | 0.00 | 0.24 | 0.02 | 94 | 1019.1 |
| 20260902180638 | 68 | 109 | 0.0 | 1.0 | 0.00 | 0.24 | 0.02 | 94 | 1019.2 |
| 20260902180425 | 68 | 109 | 0.0 | 1.0 | 0.00 | 0.24 | 0.02 | 94 | 1019.2 |
| 20260902180123 | 68 | 109 | 0.0 | 2.0 | 0.00 | 0.24 | 0.02 | 95 | 1019.2 |
| 20260902175924 | 68 | 109 | 0.0 | 2.0 | 0.00 | 0.24 | 0.02 | 95 | 1019.3 |
| 20260902175627 | 67 | 109 | 1.0 | 2.0 | 0.00 | 0.24 | 0.02 | 95 | 1019.2 |
| 20260902175429 | 67 | 109 | 1.0 | 1.0 | 0.00 | 0.24 | 0.02 | 94 | 1019.2 |
| 20260902175107 | 67 | 109 | 0.0 | 1.0 | 0.00 | 0.24 | 0.02 | 95 | 1019.1 |
| 20260902174908 | 67 | 109 | 0.0 | 3.0 | 0.00 | 0.41 | 0.02 | 95 | 1019.0 |
| 20260902174606 | 67 | 109 | 0.0 | 3.0 | 0.00 | 0.41 | 0.02 | 94 | 1018.9 |
| 20260902174413 | 67 | 109 | 0.0 | 3.0 | 0.00 | 0.41 | 0.02 | 94 | 1019.0 |
| 20260902174111 | 67 | 109 | 0.0 | 2.0 | 0.00 | 0.41 | 0.02 | 95 | 1019.0 |
| 20260902173912 | 67 | 109 | 1.0 | 2.0 | 0.00 | 0.41 | 0.02 | 94 | 1019.0 |
| 20260902173610 | 67 | 109 | 1.0 | 2.0 | 0.00 | 0.41 | 0.02 | 95 | 1018.9 |
| 20260902173411 | 67 | 109 | 0.0 | 1.0 | 0.00 | 0.41 | 0.02 | 95 | 1018.9 |
| 20260902173108 | 67 | 109 | 0.0 | 1.0 | 0.00 | 0.41 | 0.02 | 95 | 1019.0 |
| 20260902172915 | 67 | 109 | 0.0 | 0.0 | 0.00 | 0.41 | 0.02 | 95 | 1019.0 |
| 20260902172612 | 67 | 109 | 0.0 | 1.0 | 0.00 | 0.41 | 0.02 | 95 | 1019.1 |
| 20260902172413 | 67 | 109 | 0.0 | 1.0 | 0.00 | 0.41 | 0.02 | 95 | 1019.1 |
| 20260902172139 | 67 | 109 | 0.0 | 1.0 | 0.00 | 0.41 | 0.02 | 95 | 1019.1 |
| 20260902171919 | 67 | 109 | 1.0 | 2.0 | 0.00 | 0.41 | 0.02 | 95 | 1019.2 |
| 20260902171616 | 67 | 109 | 0.0 | 2.0 | 0.00 | 0.41 | 0.02 | 96 | 1019.2 |
| 20260902171417 | 67 | 109 | 0.0 | 2.0 | 0.00 | 0.41 | 0.02 | 96 | 1019.1 |
| 20260902171122 | 67 | 109 | 1.0 | 2.0 | 0.00 | 0.41 | 0.02 | 96 | 1019.1 |
| 20260902170922 | 67 | 109 | 0.0 | 2.0 | 0.00 | 0.41 | 0.02 | 96 | 1019.2 |
| 20260902170617 | 67 | 109 | 1.0 | 3.0 | 0.00 | 0.41 | 0.02 | 96 | 1019.2 |
| 20260902170416 | 67 | 109 | 1.0 | 3.0 | 0.00 | 0.41 | 0.02 | 96 | 1019.2 |
| 20260902170139 | 66 | 109 | 1.0 | 3.0 | 0.00 | 0.41 | 0.02 | 96 | 1019.2 |
| 20260902165919 | 66 | 109 | 2.0 | 3.0 | 0.00 | 0.41 | 0.02 | 96 | 1019.2 |
| 20260902165618 | 67 | 109 | 1.0 | 3.0 | 0.00 | 0.41 | 0.02 | 96 | 1019.2 |
| 20260902165419 | 67 | 109 | 1.0 | 3.0 | 0.00 | 0.41 | 0.02 | 96 | 1019.2 |
| 20260902165124 | 66 | 109 | 1.0 | 3.0 | 0.00 | 0.41 | 0.02 | 96 | 1019.2 |
| 20260902164924 | 67 | 108 | 2.0 | 3.0 | 0.00 | 0.41 | 0.02 | 97 | 1019.2 |
| 20260902164623 | 67 | 108 | 2.0 | 3.0 | 0.00 | 0.41 | 0.02 | 97 | 1019.1 |
| 20260902164445 | 67 | 108 | 2.0 | 4.0 | 0.00 | 0.41 | 0.02 | 97 | 1019.2 |
| 20260902164128 | 66 | 108 | 2.0 | 4.0 | 0.00 | 0.41 | 0.02 | 97 | 1019.2 |
| 20260902163930 | 66 | 106 | 1.0 | 4.0 | 0.00 | 0.41 | 0.02 | 97 | 1019.2 |
| 20260902163608 | 66 | 60 | 1.0 | 3.0 | 0.00 | 0.41 | 0.02 | 97 | 1019.2 |
| 20260902163409 | 66 | 56 | 1.0 | 2.0 | 0.00 | 0.41 | 0.02 | 97 | 1019.3 |
| 20260902163116 | 66 | 56 | 0.0 | 2.0 | 0.00 | 0.41 | 0.02 | 97 | 1019.4 |
| 20260902162915 | 66 | 56 | 0.0 | 2.0 | 0.00 | 0.41 | 0.02 | 97 | 1019.5 |
| 20260902162613 | 66 | 56 | 0.0 | 2.0 | 0.00 | 0.41 | 0.02 | 97 | 1019.6 |
| 20260902162414 | 66 | 56 | 0.0 | 2.0 | 0.00 | 0.41 | 0.02 | 97 | 1019.6 |
| 20260902162112 | 66 | 56 | 0.0 | 2.0 | 0.00 | 0.41 | 0.02 | 97 | 1019.7 |
| 20260902161921 | 66 | 56 | 0.0 | 2.0 | 0.00 | 0.41 | 0.02 | 98 | 1019.7 |
| 20260902161617 | 65 | 56 | 0.0 | 3.0 | 0.00 | 0.41 | 0.02 | 97 | 1019.8 |
| 20260902161417 | 65 | 56 | 0.0 | 3.0 | 0.00 | 0.41 | 0.02 | 97 | 1019.7 |
| 20260902161116 | 65 | 56 | 1.0 | 3.0 | 0.00 | 0.41 | 0.02 | 97 | 1019.7 |
| 20260902160925 | 65 | 56 | 1.0 | 3.0 | 0.00 | 0.41 | 0.02 | 97 | 1019.7 |
| 20260902160642 | 65 | 56 | 1.0 | 3.0 | 0.00 | 0.41 | 0.02 | 97 | 1019.6 |
| 20260902160422 | 65 | 56 | 0.0 | 2.0 | 0.00 | 0.41 | 0.02 | 98 | 1019.5 |
| 20260902160120 | 65 | 56 | 0.0 | 2.0 | 0.00 | 0.41 | 0.02 | 98 | 1019.5 |
| 20260902155928 | 65 | 56 | 1.0 | 2.0 | 0.00 | 0.41 | 0.02 | 97 | 1019.6 |
| 20260902155627 | 65 | 56 | 1.0 | 2.0 | 0.00 | 0.41 | 0.02 | 98 | 1019.5 |
| 20260902155406 | 65 | 56 | 1.0 | 2.0 | 0.00 | 0.41 | 0.02 | 98 | 1019.4 |
| 20260902155111 | 65 | 56 | 1.0 | 2.0 | 0.00 | 0.41 | 0.02 | 98 | 1019.4 |
| 20260902154912 | 65 | 56 | 1.0 | 2.0 | 0.00 | 0.51 | 0.02 | 98 | 1019.4 |
| 20260902154610 | 65 | 56 | 0.0 | 3.0 | 0.00 | 0.51 | 0.02 | 98 | 1019.5 |
| 20260902154410 | 65 | 56 | 1.0 | 3.0 | 0.00 | 0.51 | 0.02 | 98 | 1019.5 |
| 20260902154109 | 65 | 56 | 1.0 | 3.0 | 0.00 | 0.51 | 0.02 | 98 | 1019.4 |
| 20260902153916 | 65 | 56 | 1.0 | 3.0 | 0.00 | 0.51 | 0.02 | 98 | 1019.4 |
| 20260902153614 | 65 | 56 | 2.0 | 4.0 | 0.00 | 0.51 | 0.02 | 97 | 1019.5 |
| 20260902153415 | 65 | 56 | 1.0 | 4.0 | 0.00 | 0.51 | 0.02 | 98 | 1019.5 |
| 20260902153114 | 65 | 56 | 2.0 | 4.0 | 0.00 | 0.51 | 0.02 | 98 | 1019.6 |
| 20260902152915 | 65 | 56 | 1.0 | 2.0 | 0.00 | 0.51 | 0.02 | 98 | 1019.6 |
| 20260902152620 | 65 | 56 | 1.0 | 2.0 | 0.00 | 0.51 | 0.02 | 98 | 1019.6 |
| 20260902152420 | 65 | 56 | 0.0 | 2.0 | 0.00 | 0.51 | 0.02 | 97 | 1019.7 |
| 20260902152119 | 65 | 56 | 0.0 | 2.0 | 0.00 | 0.51 | 0.02 | 97 | 1019.8 |
| 20260902151919 | 65 | 56 | 0.0 | 2.0 | 0.00 | 0.51 | 0.02 | 98 | 1019.8 |
| 20260902151625 | 65 | 56 | 1.0 | 2.0 | 0.00 | 0.51 | 0.02 | 98 | 1019.8 |
| 20260902151424 | 65 | 56 | 1.0 | 2.0 | 0.00 | 0.51 | 0.02 | 98 | 1019.7 |
| 20260902151122 | 65 | 56 | 0.0 | 2.0 | 0.00 | 0.51 | 0.02 | 98 | 1019.7 |
| 20260902150923 | 65 | 56 | 0.0 | 3.0 | 0.00 | 0.51 | 0.02 | 98 | 1019.6 |
| 20260902150622 | 65 | 56 | 1.0 | 3.0 | 0.00 | 0.51 | 0.02 | 98 | 1019.7 |
| 20260902150428 | 65 | 56 | 1.0 | 3.0 | 0.00 | 0.51 | 0.02 | 98 | 1019.7 |
| 20260902150126 | 65 | 56 | 0.0 | 3.0 | 0.00 | 0.51 | 0.02 | 98 | 1019.6 |
| 20260902145907 | 65 | 56 | 2.0 | 3.0 | 0.00 | 0.51 | 0.02 | 98 | 1019.6 |
| 20260902145605 | 65 | 56 | 1.0 | 3.0 | 0.00 | 0.51 | 0.02 | 98 | 1019.6 |
| 20260902145406 | 65 | 56 | 0.0 | 3.0 | 0.00 | 0.51 | 0.02 | 98 | 1019.6 |
| 20260902145131 | 65 | 56 | 1.0 | 3.0 | 0.00 | 0.51 | 0.02 | 98 | 1019.5 |
| 20260902144931 | 65 | 56 | 2.0 | 3.0 | 0.00 | 0.54 | 0.02 | 98 | 1019.5 |
| 20260902144608 | 65 | 56 | 2.0 | 3.0 | 0.00 | 0.54 | 0.02 | 98 | 1019.6 |
| 20260902144430 | 65 | 56 | 2.0 | 3.0 | 0.00 | 0.54 | 0.02 | 98 | 1019.6 |
| 20260902144109 | 65 | 56 | 1.0 | 4.0 | 0.00 | 0.54 | 0.02 | 98 | 1019.5 |
| 20260902143934 | 65 | 56 | 0.0 | 4.0 | 0.00 | 0.54 | 0.02 | 98 | 1019.5 |
| 20260902143608 | 65 | 56 | 1.0 | 4.0 | 0.00 | 0.54 | 0.02 | 98 | 1019.5 |
| 20260902143419 | 65 | 56 | 2.0 | 6.0 | 0.00 | 0.54 | 0.02 | 98 | 1019.4 |
| 20260902143113 | 65 | 56 | 1.0 | 6.0 | 0.00 | 0.54 | 0.02 | 98 | 1019.3 |
| 20260902142918 | 65 | 56 | 2.0 | 6.0 | 0.00 | 0.54 | 0.02 | 98 | 1019.4 |
| 20260902142631 | 65 | 55 | 2.0 | 6.0 | 0.00 | 0.54 | 0.02 | 98 | 1019.4 |
| 20260902142422 | 65 | 55 | 2.0 | 4.0 | 0.00 | 0.54 | 0.02 | 98 | 1019.5 |
| 20260902142137 | 65 | 55 | 3.0 | 4.0 | 0.00 | 0.54 | 0.02 | 98 | 1019.5 |
| 20260902141928 | 65 | 55 | 2.0 | 3.0 | 0.00 | 0.54 | 0.02 | 98 | 1019.5 |
| 20260902141620 | 65 | 55 | 2.0 | 3.0 | 0.00 | 0.54 | 0.02 | 98 | 1019.6 |
| 20260902141405 | 65 | 55 | 1.0 | 2.0 | 0.00 | 0.54 | 0.02 | 98 | 1019.7 |
| 20260902141126 | 65 | 55 | 1.0 | 2.0 | 0.00 | 0.54 | 0.02 | 98 | 1019.7 |
| 20260902140911 | 65 | 55 | 0.0 | 2.0 | 0.00 | 0.54 | 0.02 | 98 | 1019.7 |
| 20260902140605 | 65 | 55 | 1.0 | 3.0 | 0.00 | 0.54 | 0.02 | 98 | 1019.8 |
| 20260902140410 | 65 | 55 | 0.0 | 4.0 | 0.00 | 0.54 | 0.02 | 98 | 1019.7 |
| 20260902140104 | 65 | 55 | 1.0 | 5.0 | 0.00 | 0.54 | 0.02 | 98 | 1019.6 |
| 20260902135908 | 65 | 55 | 2.0 | 5.0 | 0.00 | 0.54 | 0.02 | 98 | 1019.6 |
| 20260902135629 | 65 | 55 | 3.0 | 5.0 | 0.00 | 0.54 | 0.02 | 98 | 1019.6 |
| 20260902135413 | 65 | 55 | 2.0 | 3.0 | 0.00 | 0.54 | 0.02 | 98 | 1019.6 |
| 20260902135108 | 65 | 55 | 2.0 | 3.0 | 0.00 | 0.54 | 0.02 | 98 | 1019.6 |
| 20260902134912 | 65 | 55 | 1.0 | 3.0 | 0.00 | 0.54 | 0.02 | 98 | 1019.6 |
| 20260902134633 | 65 | 55 | 1.0 | 2.0 | 0.00 | 0.54 | 0.02 | 98 | 1019.6 |
| 20260902134412 | 65 | 55 | 2.0 | 3.0 | 0.00 | 0.54 | 0.02 | 98 | 1019.7 |
| 20260902134109 | 65 | 55 | 1.0 | 3.0 | 0.00 | 0.54 | 0.02 | 98 | 1019.6 |
| 20260902133911 | 65 | 55 | 1.0 | 3.0 | 0.00 | 0.54 | 0.02 | 98 | 1019.6 |
| 20260902133635 | 65 | 55 | 1.0 | 2.0 | 0.00 | 0.54 | 0.02 | 98 | 1019.5 |
| 20260902133414 | 65 | 55 | 1.0 | 2.0 | 0.00 | 0.54 | 0.02 | 98 | 1019.5 |
| 20260902133111 | 65 | 55 | 1.0 | 3.0 | 0.00 | 0.54 | 0.02 | 98 | 1019.5 |
| 20260902132918 | 65 | 55 | 1.0 | 3.0 | 0.00 | 0.54 | 0.02 | 98 | 1019.4 |
| 20260902132613 | 65 | 55 | 1.0 | 3.0 | 0.00 | 0.54 | 0.02 | 98 | 1019.4 |
| 20260902132414 | 65 | 55 | 0.0 | 3.0 | 0.00 | 0.54 | 0.02 | 98 | 1019.5 |
| 20260902132140 | 64 | 55 | 1.0 | 3.0 | 0.00 | 0.54 | 0.02 | 98 | 1019.4 |
| 20260902131939 | 64 | 55 | 1.0 | 3.0 | 0.00 | 0.54 | 0.02 | 98 | 1019.4 |
| 20260902131616 | 65 | 55 | 2.0 | 3.0 | 0.00 | 0.54 | 0.02 | 98 | 1019.4 |
| 20260902131442 | 65 | 55 | 1.0 | 3.0 | 0.00 | 0.54 | 0.02 | 98 | 1019.4 |
| 20260902131119 | 65 | 55 | 1.0 | 3.0 | 0.00 | 0.54 | 0.02 | 98 | 1019.3 |
| 20260902130919 | 65 | 55 | 1.0 | 3.0 | 0.00 | 0.54 | 0.02 | 98 | 1019.3 |
| 20260902130624 | 65 | 55 | 1.0 | 3.0 | 0.00 | 0.54 | 0.02 | 98 | 1019.3 |
| 20260902130407 | 65 | 55 | 1.0 | 2.0 | 0.00 | 0.54 | 0.02 | 98 | 1019.3 |
| 20260902130144 | 65 | 55 | 1.0 | 2.0 | 0.00 | 0.54 | 0.02 | 98 | 1019.2 |
| 20260902125930 | 65 | 55 | 1.0 | 2.0 | 0.00 | 0.54 | 0.02 | 98 | 1019.2 |
| 20260902125630 | 65 | 55 | 1.0 | 4.0 | 0.00 | 0.54 | 0.02 | 98 | 1019.2 |
| 20260902125429 | 65 | 55 | 0.0 | 4.0 | 0.00 | 0.54 | 0.02 | 98 | 1019.1 |
| 20260902125112 | 65 | 55 | 1.0 | 4.0 | 0.00 | 0.54 | 0.02 | 98 | 1019.1 |
| 20260902124934 | 65 | 55 | 1.0 | 2.0 | 0.00 | 0.54 | 0.02 | 98 | 1019.1 |
| 20260902124612 | 65 | 55 | 2.0 | 3.0 | 0.00 | 0.54 | 0.02 | 98 | 1019.2 |
| 20260902124419 | 65 | 55 | 1.0 | 3.0 | 0.00 | 0.54 | 0.02 | 98 | 1019.2 |
| 20260902124115 | 65 | 55 | 2.0 | 3.0 | 0.00 | 0.54 | 0.02 | 98 | 1019.3 |
| 20260902123916 | 65 | 55 | 1.0 | 3.0 | 0.00 | 0.54 | 0.02 | 98 | 1019.3 |
| 20260902123613 | 65 | 55 | 1.0 | 3.0 | 0.00 | 0.54 | 0.02 | 98 | 1019.1 |
| 20260902123413 | 64 | 55 | 1.0 | 4.0 | 0.00 | 0.54 | 0.02 | 98 | 1019.1 |
| 20260902123119 | 64 | 55 | 2.0 | 4.0 | 0.00 | 0.54 | 0.02 | 98 | 1018.9 |
| 20260902122919 | 64 | 55 | 1.0 | 4.0 | 0.00 | 0.54 | 0.02 | 98 | 1019.0 |
| 20260902122617 | 64 | 55 | 2.0 | 4.0 | 0.00 | 0.54 | 0.02 | 98 | 1019.0 |
| 20260902122447 | 65 | 55 | 1.0 | 3.0 | 0.00 | 0.54 | 0.02 | 98 | 1019.0 |
| 20260902122118 | 64 | 55 | 1.0 | 2.0 | 0.00 | 0.54 | 0.02 | 98 | 1018.9 |
| 20260902121923 | 65 | 55 | 0.0 | 3.0 | 0.00 | 0.54 | 0.02 | 98 | 1018.9 |
| 20260902121618 | 64 | 55 | 1.0 | 4.0 | 0.00 | 0.54 | 0.02 | 98 | 1018.9 |
| 20260902121423 | 64 | 55 | 0.0 | 4.0 | 0.00 | 0.54 | 0.02 | 98 | 1018.9 |
| 20260902121123 | 64 | 55 | 1.0 | 4.0 | 0.00 | 0.54 | 0.02 | 98 | 1018.8 |
| 20260902120909 | 65 | 55 | 3.0 | 4.0 | 0.00 | 0.54 | 0.02 | 98 | 1018.8 |
| 20260902120606 | 65 | 55 | 2.0 | 4.0 | 0.00 | 0.54 | 0.02 | 98 | 1018.7 |
| 20260902120406 | 65 | 13 | 1.0 | 3.0 | 0.00 | 0.54 | 0.02 | 98 | 1018.7 |
| 20260902120119 | 65 | 13 | 1.0 | 3.0 | 0.00 | 0.54 | 0.02 | 98 | 1018.8 |
| 20260902115904 | 65 | 13 | 1.0 | 3.0 | 0.00 | 0.54 | 0.02 | 98 | 1018.8 |
| 20260902115611 | 65 | 13 | 1.0 | 3.0 | 0.00 | 0.54 | 0.02 | 98 | 1018.7 |
| 20260902115410 | 65 | 13 | 2.0 | 3.0 | 0.00 | 0.54 | 0.02 | 98 | 1018.8 |
| 20260902115108 | 65 | 13 | 1.0 | 3.0 | 0.00 | 0.54 | 0.02 | 98 | 1018.7 |
| 20260902114909 | 65 | 13 | 1.0 | 3.0 | 0.00 | 0.55 | 0.02 | 98 | 1018.7 |
| 20260902114607 | 65 | 13 | 2.0 | 3.0 | 0.00 | 0.55 | 0.02 | 98 | 1018.8 |
| 20260902114408 | 65 | 6 | 2.0 | 3.0 | 0.00 | 0.55 | 0.02 | 98 | 1018.7 |
| 20260902114112 | 65 | 6 | 2.0 | 4.0 | 0.00 | 0.55 | 0.02 | 98 | 1018.8 |
| 20260902113933 | 65 | 6 | 2.0 | 4.0 | 0.00 | 0.55 | 0.02 | 98 | 1018.9 |
| 20260902113606 | 65 | 6 | 1.0 | 4.0 | 0.01 | 0.55 | 0.02 | 98 | 1018.8 |
| 20260902113417 | 65 | 6 | 1.0 | 4.0 | 0.01 | 0.55 | 0.02 | 98 | 1018.8 |
| 20260902113112 | 65 | 6 | 0.0 | 3.0 | 0.01 | 0.55 | 0.02 | 98 | 1018.9 |
| 20260902112917 | 65 | 6 | 1.0 | 3.0 | 0.01 | 0.55 | 0.02 | 98 | 1018.9 |
| 20260902112611 | 65 | 6 | 1.0 | 3.0 | 0.01 | 0.55 | 0.02 | 98 | 1018.9 |
| 20260902112415 | 65 | 6 | 1.0 | 3.0 | 0.01 | 0.55 | 0.02 | 98 | 1018.9 |
| 20260902112134 | 65 | 6 | 1.0 | 3.0 | 0.01 | 0.55 | 0.02 | 98 | 1018.8 |
| 20260902111918 | 65 | 6 | 1.0 | 2.0 | 0.01 | 0.55 | 0.02 | 98 | 1018.8 |
| 20260902111611 | 65 | 6 | 1.0 | 3.0 | 0.01 | 0.55 | 0.02 | 98 | 1018.8 |
| 20260902111422 | 65 | 6 | 1.0 | 3.0 | 0.01 | 0.55 | 0.02 | 98 | 1018.7 |
| 20260902111116 | 65 | 6 | 1.0 | 3.0 | 0.01 | 0.55 | 0.02 | 98 | 1018.7 |
| 20260902110918 | 65 | 6 | 1.0 | 3.0 | 0.01 | 0.55 | 0.02 | 98 | 1018.7 |
| 20260902110612 | 65 | 6 | 0.0 | 2.0 | 0.01 | 0.55 | 0.02 | 98 | 1018.7 |
| 20260902110425 | 65 | 6 | 0.0 | 2.0 | 0.01 | 0.55 | 0.02 | 98 | 1018.7 |
| 20260902110118 | 65 | 6 | 1.0 | 2.0 | 0.01 | 0.55 | 0.02 | 98 | 1018.7 |
| 20260902105923 | 65 | 6 | 0.0 | 2.0 | 0.01 | 0.55 | 0.02 | 98 | 1018.7 |
| 20260902105617 | 65 | 6 | 1.0 | 2.0 | 0.01 | 0.55 | 0.02 | 98 | 1018.6 |
| 20260902105422 | 65 | 6 | 1.0 | 3.0 | 0.01 | 0.55 | 0.02 | 98 | 1018.6 |
| 20260902105115 | 65 | 6 | 1.0 | 3.0 | 0.01 | 0.55 | 0.02 | 98 | 1018.7 |
| 20260902104926 | 65 | 6 | 1.0 | 3.0 | 0.01 | 0.55 | 0.02 | 98 | 1018.7 |
| 20260902104620 | 65 | 6 | 2.0 | 3.0 | 0.01 | 0.55 | 0.02 | 98 | 1018.7 |
| 20260902104404 | 65 | 6 | 1.0 | 2.0 | 0.01 | 0.55 | 0.02 | 98 | 1018.7 |
| 20260902104119 | 65 | 6 | 0.0 | 3.0 | 0.01 | 0.55 | 0.02 | 98 | 1018.7 |
| 20260902103924 | 65 | 6 | 0.0 | 3.0 | 0.01 | 0.55 | 0.02 | 98 | 1018.7 |
| 20260902103625 | 65 | 6 | 1.0 | 3.0 | 0.00 | 0.54 | 0.01 | 98 | 1018.6 |
| 20260902103428 | 65 | 6 | 2.0 | 3.0 | 0.00 | 0.54 | 0.01 | 98 | 1018.7 |
| 20260902103123 | 65 | 6 | 1.0 | 2.0 | 0.00 | 0.54 | 0.01 | 98 | 1018.7 |
| 20260902102908 | 65 | 6 | 1.0 | 2.0 | 0.00 | 0.54 | 0.01 | 98 | 1018.6 |
| 20260902102622 | 65 | 6 | 1.0 | 2.0 | 0.00 | 0.54 | 0.01 | 98 | 1018.6 |
| 20260902102405 | 65 | 6 | 1.0 | 2.0 | 0.00 | 0.54 | 0.01 | 98 | 1018.6 |
| 20260902102125 | 65 | 6 | 1.0 | 2.0 | 0.00 | 0.54 | 0.01 | 98 | 1018.6 |
| 20260902101929 | 65 | 6 | 1.0 | 2.0 | 0.00 | 0.54 | 0.01 | 98 | 1018.5 |
| 20260902101628 | 65 | 6 | 1.0 | 2.0 | 0.00 | 0.54 | 0.01 | 98 | 1018.5 |
| 20260902101412 | 65 | 6 | 1.0 | 2.0 | 0.00 | 0.54 | 0.01 | 98 | 1018.5 |
| 20260902101105 | 65 | 6 | 1.0 | 2.0 | 0.00 | 0.54 | 0.01 | 98 | 1018.4 |
| 20260902100909 | 65 | 6 | 2.0 | 3.0 | 0.00 | 0.54 | 0.01 | 98 | 1018.4 |
| 20260902100630 | 65 | 6 | 1.0 | 4.0 | 0.00 | 0.54 | 0.01 | 98 | 1018.5 |
| 20260902100414 | 65 | 6 | 1.0 | 4.0 | 0.00 | 0.54 | 0.01 | 98 | 1018.4 |
| 20260902100130 | 65 | 6 | 2.0 | 4.0 | 0.00 | 0.54 | 0.01 | 98 | 1018.4 |
| 20260902095914 | 65 | 6 | 2.0 | 4.0 | 0.00 | 0.54 | 0.01 | 98 | 1018.4 |
| 20260902095614 | 65 | 6 | 2.0 | 3.0 | 0.00 | 0.54 | 0.01 | 98 | 1018.3 |
| 20260902095419 | 65 | 6 | 2.0 | 3.0 | 0.00 | 0.54 | 0.01 | 98 | 1018.3 |
| 20260902095113 | 65 | 6 | 1.0 | 3.0 | 0.00 | 0.54 | 0.01 | 98 | 1018.3 |
| 20260902094918 | 65 | 6 | 1.0 | 2.0 | 0.00 | 0.54 | 0.01 | 98 | 1018.3 |
| 20260902094612 | 65 | 6 | 0.0 | 2.0 | 0.00 | 0.54 | 0.01 | 98 | 1018.2 |
| 20260902094423 | 65 | 6 | 1.0 | 2.0 | 0.00 | 0.54 | 0.01 | 98 | 1018.3 |
| 20260902094117 | 65 | 6 | 1.0 | 2.0 | 0.00 | 0.54 | 0.01 | 98 | 1018.2 |
| 20260902093922 | 65 | 6 | 1.0 | 2.0 | 0.00 | 0.54 | 0.01 | 98 | 1018.1 |
| 20260902093616 | 65 | 6 | 1.0 | 2.0 | 0.00 | 0.54 | 0.01 | 98 | 1018.1 |
| 20260902093421 | 65 | 6 | 1.0 | 2.0 | 0.00 | 0.54 | 0.01 | 98 | 1018.2 |
| 20260902093114 | 65 | 6 | 1.0 | 2.0 | 0.00 | 0.54 | 0.01 | 98 | 1018.2 |
| 20260902092925 | 65 | 6 | 1.0 | 2.0 | 0.00 | 0.54 | 0.01 | 98 | 1018.2 |
| 20260902092620 | 65 | 6 | 1.0 | 2.0 | 0.00 | 0.54 | 0.01 | 98 | 1018.1 |
| 20260902092425 | 65 | 6 | 1.0 | 3.0 | 0.00 | 0.54 | 0.01 | 98 | 1018.0 |
| 20260902092126 | 65 | 6 | 1.0 | 3.0 | 0.00 | 0.54 | 0.01 | 98 | 1018.0 |
| 20260902091927 | 65 | 6 | 1.0 | 3.0 | 0.00 | 0.54 | 0.01 | 98 | 1018.0 |
| 20260902091610 | 65 | 6 | 1.0 | 3.0 | 0.00 | 0.54 | 0.01 | 98 | 1018.0 |
| 20260902091411 | 65 | 6 | 1.0 | 3.0 | 0.00 | 0.54 | 0.01 | 98 | 1018.0 |
| 20260902091109 | 65 | 6 | 0.0 | 2.0 | 0.00 | 0.54 | 0.01 | 98 | 1018.0 |
| 20260902090907 | 65 | 6 | 1.0 | 2.0 | 0.00 | 0.54 | 0.01 | 98 | 1018.0 |
| 20260902090605 | 65 | 6 | 1.0 | 2.0 | 0.00 | 0.54 | 0.01 | 98 | 1018.0 |
| 20260902090412 | 65 | 6 | 0.0 | 4.0 | 0.00 | 0.54 | 0.01 | 98 | 1018.1 |
| 20260902090109 | 65 | 6 | 1.0 | 4.0 | 0.00 | 0.54 | 0.01 | 98 | 1018.0 |
| 20260902085910 | 65 | 6 | 1.0 | 4.0 | 0.00 | 0.54 | 0.01 | 98 | 1018.1 |
| 20260902085607 | 65 | 6 | 2.0 | 4.0 | 0.00 | 0.54 | 0.01 | 97 | 1018.1 |
| 20260902085407 | 65 | 6 | 0.0 | 2.0 | 0.00 | 0.54 | 0.01 | 97 | 1018.1 |
| 20260902085111 | 65 | 6 | 1.0 | 2.0 | 0.00 | 0.54 | 0.01 | 97 | 1018.0 |
| 20260902084911 | 65 | 6 | 1.0 | 2.0 | 0.00 | 0.54 | 0.01 | 97 | 1018.0 |
| 20260902084610 | 65 | 6 | 1.0 | 2.0 | 0.00 | 0.54 | 0.01 | 97 | 1017.9 |
| 20260902084410 | 65 | 6 | 1.0 | 2.0 | 0.00 | 0.54 | 0.01 | 97 | 1017.9 |
| 20260902084109 | 65 | 6 | 1.0 | 3.0 | 0.00 | 0.54 | 0.01 | 97 | 1017.9 |
| 20260902083909 | 65 | 6 | 0.0 | 3.0 | 0.00 | 0.54 | 0.01 | 97 | 1017.9 |
| 20260902083613 | 65 | 6 | 1.0 | 3.0 | 0.00 | 0.54 | 0.01 | 98 | 1017.8 |
| 20260902083414 | 65 | 6 | 1.0 | 3.0 | 0.00 | 0.54 | 0.01 | 98 | 1017.7 |
| 20260902083133 | 65 | 6 | 2.0 | 3.0 | 0.00 | 0.54 | 0.01 | 98 | 1017.7 |
| 20260902082919 | 65 | 6 | 1.0 | 2.0 | 0.00 | 0.54 | 0.01 | 97 | 1017.7 |
| 20260902082618 | 65 | 6 | 1.0 | 2.0 | 0.00 | 0.54 | 0.01 | 97 | 1017.7 |
| 20260902082418 | 65 | 6 | 1.0 | 2.0 | 0.00 | 0.54 | 0.01 | 98 | 1017.7 |
| 20260902082117 | 65 | 6 | 0.0 | 1.0 | 0.00 | 0.54 | 0.01 | 98 | 1017.7 |
| 20260902081944 | 65 | 6 | 0.0 | 1.0 | 0.00 | 0.54 | 0.01 | 98 | 1017.7 |
| 20260902081647 | 65 | 6 | 0.0 | 1.0 | 0.00 | 0.54 | 0.01 | 98 | 1017.6 |
| 20260902081426 | 65 | 6 | 0.0 | 1.0 | 0.00 | 0.54 | 0.01 | 97 | 1017.6 |
| 20260902081126 | 65 | 6 | 0.0 | 2.0 | 0.00 | 0.54 | 0.01 | 97 | 1017.6 |
| 20260902080905 | 65 | 6 | 0.0 | 2.0 | 0.00 | 0.54 | 0.01 | 97 | 1017.6 |
| 20260902080631 | 65 | 6 | 1.0 | 2.0 | 0.00 | 0.54 | 0.01 | 97 | 1017.5 |
| 20260902080408 | 65 | 6 | 1.0 | 2.0 | 0.00 | 0.54 | 0.01 | 97 | 1017.5 |
| 20260902080106 | 65 | 6 | 1.0 | 3.0 | 0.00 | 0.54 | 0.01 | 97 | 1017.5 |
| 20260902075907 | 65 | 6 | 1.0 | 3.0 | 0.00 | 0.54 | 0.01 | 97 | 1017.5 |
| 20260902075605 | 65 | 6 | 1.0 | 3.0 | 0.00 | 0.54 | 0.01 | 97 | 1017.6 |
| 20260902075413 | 65 | 6 | 1.0 | 3.0 | 0.00 | 0.54 | 0.01 | 97 | 1017.5 |
| 20260902075130 | 65 | 6 | 1.0 | 2.0 | 0.00 | 0.54 | 0.01 | 97 | 1017.5 |
| 20260902074909 | 65 | 6 | 1.0 | 2.0 | 0.00 | 0.56 | 0.01 | 97 | 1017.5 |
| 20260902074614 | 65 | 6 | 1.0 | 3.0 | 0.00 | 0.56 | 0.01 | 97 | 1017.6 |
| 20260902074415 | 65 | 6 | 1.0 | 4.0 | 0.00 | 0.56 | 0.01 | 97 | 1017.5 |
| 20260902074111 | 65 | 6 | 1.0 | 4.0 | 0.00 | 0.56 | 0.01 | 97 | 1017.5 |
| 20260902073912 | 65 | 6 | 2.0 | 4.0 | 0.00 | 0.56 | 0.01 | 97 | 1017.4 |
| 20260902073638 | 65 | 6 | 2.0 | 4.0 | 0.00 | 0.56 | 0.01 | 97 | 1017.5 |
| 20260902073418 | 65 | 6 | 1.0 | 3.0 | 0.00 | 0.56 | 0.01 | 97 | 1017.5 |
| 20260902073115 | 65 | 6 | 1.0 | 3.0 | 0.00 | 0.56 | 0.01 | 97 | 1017.4 |
| 20260902072916 | 65 | 6 | 1.0 | 3.0 | 0.00 | 0.56 | 0.01 | 97 | 1017.4 |
| 20260902072615 | 65 | 6 | 2.0 | 3.0 | 0.00 | 0.56 | 0.01 | 97 | 1017.3 |
| 20260902072422 | 65 | 6 | 1.0 | 4.0 | 0.00 | 0.56 | 0.01 | 97 | 1017.2 |
| 20260902072141 | 65 | 6 | 1.0 | 4.0 | 0.00 | 0.56 | 0.01 | 97 | 1017.2 |
| 20260902071920 | 65 | 6 | 2.0 | 4.0 | 0.00 | 0.56 | 0.01 | 97 | 1017.2 |
| 20260902071624 | 65 | 6 | 2.0 | 3.0 | 0.00 | 0.56 | 0.01 | 97 | 1017.2 |
| 20260902071405 | 65 | 6 | 2.0 | 3.0 | 0.00 | 0.56 | 0.01 | 97 | 1017.2 |
| 20260902071124 | 65 | 6 | 2.0 | 4.0 | 0.01 | 0.56 | 0.01 | 97 | 1017.1 |
| 20260902070904 | 65 | 6 | 1.0 | 4.0 | 0.01 | 0.56 | 0.01 | 97 | 1017.1 |
| 20260902070629 | 65 | 6 | 2.0 | 4.0 | 0.01 | 0.56 | 0.01 | 97 | 1017.1 |
| 20260902070430 | 65 | 6 | 2.0 | 4.0 | 0.01 | 0.56 | 0.01 | 97 | 1017.1 |
| 20260902070108 | 65 | 8 | 2.0 | 3.0 | 0.01 | 0.56 | 0.01 | 97 | 1017.0 |
| 20260902065908 | 65 | 8 | 1.0 | 3.0 | 0.01 | 0.56 | 0.01 | 97 | 1017.0 |
| 20260902065605 | 65 | 8 | 2.0 | 3.0 | 0.01 | 0.56 | 0.01 | 97 | 1017.1 |
| 20260902065406 | 65 | 8 | 2.0 | 3.0 | 0.01 | 0.56 | 0.01 | 97 | 1017.0 |
| 20260902065104 | 65 | 8 | 2.0 | 3.0 | 0.01 | 0.56 | 0.01 | 97 | 1017.0 |
| 20260902064911 | 65 | 8 | 2.0 | 3.0 | 0.01 | 0.56 | 0.01 | 97 | 1017.0 |
| 20260902064610 | 65 | 8 | 2.0 | 5.0 | 0.01 | 0.56 | 0.01 | 97 | 1017.1 |
| 20260902064411 | 65 | 8 | 2.0 | 5.0 | 0.01 | 0.56 | 0.01 | 97 | 1017.1 |
| 20260902064109 | 65 | 8 | 2.0 | 5.0 | 0.01 | 0.56 | 0.01 | 97 | 1017.2 |
| 20260902063936 | 65 | 10 | 2.0 | 4.0 | 0.01 | 0.56 | 0.01 | 97 | 1017.3 |
| 20260902063631 | 65 | 10 | 3.0 | 4.0 | 0.01 | 0.56 | 0.01 | 97 | 1017.3 |
| 20260902063414 | 66 | 15 | 3.0 | 4.0 | 0.01 | 0.56 | 0.01 | 97 | 1017.3 |
| 20260902063114 | 66 | 65 | 2.0 | 4.0 | 0.01 | 0.56 | 0.01 | 97 | 1017.3 |
| 20260902062919 | 66 | 65 | 1.0 | 3.0 | 0.01 | 0.56 | 0.01 | 97 | 1017.4 |
| 20260902062614 | 65 | 65 | 2.0 | 3.0 | 0.01 | 0.56 | 0.01 | 97 | 1017.3 |
| 20260902062418 | 65 | 65 | 2.0 | 3.0 | 0.01 | 0.56 | 0.01 | 97 | 1017.3 |
| 20260902062113 | 65 | 65 | 1.0 | 3.0 | 0.01 | 0.56 | 0.01 | 97 | 1017.3 |
| 20260902061923 | 65 | 65 | 2.0 | 3.0 | 0.01 | 0.56 | 0.01 | 97 | 1017.3 |
| 20260902061639 | 65 | 65 | 1.0 | 2.0 | 0.01 | 0.56 | 0.01 | 97 | 1017.3 |
| 20260902061429 | 65 | 65 | 1.0 | 2.0 | 0.01 | 0.56 | 0.01 | 97 | 1017.3 |
| 20260902061122 | 65 | 65 | 0.0 | 2.0 | 0.00 | 0.55 | 0.00 | 97 | 1017.4 |
| 20260902060907 | 65 | 65 | 1.0 | 2.0 | 0.00 | 0.55 | 0.00 | 96 | 1017.4 |
| 20260902060621 | 65 | 65 | 1.0 | 2.0 | 0.00 | 0.55 | 0.00 | 96 | 1017.6 |
| 20260902060406 | 65 | 65 | 0.0 | 2.0 | 0.00 | 0.55 | 0.00 | 96 | 1017.6 |
| 20260902060120 | 65 | 65 | 0.0 | 2.0 | 0.00 | 0.55 | 0.00 | 96 | 1017.6 |
| 20260902055905 | 65 | 65 | 1.0 | 3.0 | 0.00 | 0.55 | 0.00 | 96 | 1017.6 |
| 20260902055645 | 65 | 65 | 1.0 | 3.0 | 0.00 | 0.55 | 0.00 | 96 | 1017.6 |
| 20260902055408 | 65 | 65 | 1.0 | 3.0 | 0.00 | 0.55 | 0.00 | 96 | 1017.6 |
| 20260902055129 | 66 | 65 | 2.0 | 3.0 | 0.00 | 0.55 | 0.00 | 96 | 1017.6 |
| 20260902054935 | 66 | 65 | 0.0 | 2.0 | 0.00 | 0.55 | 0.00 | 96 | 1017.6 |
| 20260902054608 | 66 | 65 | 1.0 | 2.0 | 0.00 | 0.55 | 0.00 | 96 | 1017.6 |
| 20260902054412 | 66 | 65 | 1.0 | 3.0 | 0.00 | 0.55 | 0.00 | 96 | 1017.6 |
| 20260902054106 | 66 | 65 | 1.0 | 3.0 | 0.00 | 0.55 | 0.00 | 96 | 1017.6 |
| 20260902053917 | 66 | 65 | 1.0 | 3.0 | 0.00 | 0.55 | 0.00 | 96 | 1017.6 |
| 20260902053630 | 66 | 65 | 0.0 | 2.0 | 0.00 | 0.55 | 0.00 | 96 | 1017.6 |
| 20260902053414 | 66 | 65 | 0.0 | 3.0 | 0.00 | 0.55 | 0.00 | 96 | 1017.5 |
| 20260902053107 | 66 | 65 | 1.0 | 6.0 | 0.00 | 0.55 | 0.00 | 96 | 1017.6 |
| 20260902052918 | 66 | 65 | 1.0 | 6.0 | 0.00 | 0.55 | 0.00 | 96 | 1017.6 |
| 20260902052612 | 66 | 65 | 3.0 | 6.0 | 0.00 | 0.55 | 0.00 | 96 | 1017.6 |
| 20260902052417 | 66 | 83 | 2.0 | 3.0 | 0.00 | 0.55 | 0.00 | 96 | 1017.7 |
| 20260902052111 | 66 | 83 | 2.0 | 3.0 | 0.00 | 0.55 | 0.00 | 96 | 1017.7 |
| 20260902051916 | 66 | 83 | 1.0 | 3.0 | 0.00 | 0.55 | 0.00 | 96 | 1017.6 |
| 20260902051617 | 66 | 83 | 0.0 | 3.0 | 0.00 | 0.55 | 0.00 | 96 | 1017.6 |
| 20260902051421 | 66 | 83 | 1.0 | 3.0 | 0.00 | 0.55 | 0.00 | 96 | 1017.6 |
| 20260902051116 | 66 | 83 | 2.0 | 3.0 | 0.00 | 0.55 | 0.00 | 96 | 1017.6 |
| 20260902050921 | 66 | 83 | 1.0 | 3.0 | 0.00 | 0.55 | 0.00 | 96 | 1017.6 |
| 20260902050621 | 66 | 83 | 1.0 | 3.0 | 0.00 | 0.55 | 0.00 | 96 | 1017.6 |
| 20260902050426 | 66 | 83 | 1.0 | 3.0 | 0.00 | 0.55 | 0.00 | 96 | 1017.5 |
| 20260902050141 | 66 | 83 | 1.0 | 3.0 | 0.00 | 0.55 | 0.00 | 96 | 1017.5 |
| 20260902045931 | 66 | 83 | 1.0 | 4.0 | 0.00 | 0.55 | 0.00 | 96 | 1017.5 |
| 20260902045624 | 66 | 83 | 1.0 | 4.0 | 0.00 | 0.55 | 0.00 | 96 | 1017.4 |
| 20260902045451 | 66 | 83 | 1.0 | 4.0 | 0.00 | 0.55 | 0.00 | 96 | 1017.5 |
| 20260902045128 | 66 | 87 | 2.0 | 4.0 | 0.00 | 0.55 | 0.00 | 96 | 1017.5 |
| 20260902044908 | 66 | 88 | 0.0 | 1.0 | 0.00 | 0.63 | 0.00 | 96 | 1017.5 |
| 20260902044626 | 66 | 88 | 0.0 | 1.0 | 0.00 | 0.63 | 0.00 | 96 | 1017.4 |
| 20260902044406 | 66 | 88 | 0.0 | 1.0 | 0.00 | 0.63 | 0.00 | 96 | 1017.4 |
| 20260902044110 | 66 | 88 | 0.0 | 3.0 | 0.00 | 0.63 | 0.00 | 96 | 1017.4 |
| 20260902043911 | 66 | 88 | 0.0 | 3.0 | 0.00 | 0.63 | 0.00 | 96 | 1017.4 |
| 20260902043609 | 66 | 88 | 1.0 | 3.0 | 0.00 | 0.63 | 0.00 | 96 | 1017.4 |
| 20260902043410 | 66 | 88 | 1.0 | 3.0 | 0.00 | 0.63 | 0.00 | 96 | 1017.4 |
| 20260902043107 | 66 | 88 | 1.0 | 6.0 | 0.00 | 0.63 | 0.00 | 95 | 1017.4 |
| 20260902042913 | 66 | 88 | 2.0 | 6.0 | 0.00 | 0.63 | 0.00 | 95 | 1017.3 |
| 20260902042611 | 66 | 88 | 3.0 | 7.0 | 0.00 | 0.63 | 0.00 | 95 | 1017.2 |
| 20260902042412 | 66 | 108 | 0.0 | 7.0 | 0.00 | 0.63 | 0.00 | 95 | 1017.3 |
| 20260902042109 | 66 | 108 | 2.0 | 7.0 | 0.00 | 0.63 | 0.00 | 95 | 1017.2 |
| 20260902041909 | 66 | 108 | 3.0 | 7.0 | 0.00 | 0.63 | 0.00 | 95 | 1017.2 |
| 20260902041635 | 66 | 60 | 3.0 | 6.0 | 0.00 | 0.63 | 0.00 | 95 | 1017.2 |
| 20260902041441 | 66 | 64 | 3.0 | 6.0 | 0.00 | 0.63 | 0.00 | 95 | 1017.2 |
| 20260902041117 | 66 | 77 | 3.0 | 4.0 | 0.00 | 0.63 | 0.00 | 95 | 1017.1 |
| 20260902040937 | 66 | 77 | 3.0 | 6.0 | 0.00 | 0.63 | 0.00 | 95 | 1017.2 |
| 20260902040620 | 67 | 78 | 2.0 | 6.0 | 0.00 | 0.63 | 0.00 | 95 | 1017.3 |
| 20260902040421 | 67 | 78 | 3.0 | 6.0 | 0.00 | 0.63 | 0.00 | 95 | 1017.3 |
| 20260902040119 | 67 | 79 | 3.0 | 6.0 | 0.00 | 0.63 | 0.00 | 95 | 1017.2 |
| 20260902035920 | 67 | 85 | 3.0 | 6.0 | 0.00 | 0.63 | 0.00 | 95 | 1017.2 |
| 20260902035617 | 67 | 99 | 2.0 | 4.0 | 0.00 | 0.63 | 0.00 | 95 | 1017.2 |
| 20260902035423 | 67 | 99 | 2.0 | 4.0 | 0.00 | 0.63 | 0.00 | 95 | 1017.1 |
| 20260902035122 | 67 | 100 | 1.0 | 4.0 | 0.00 | 0.63 | 0.00 | 95 | 1017.1 |
| 20260902034921 | 67 | 100 | 0.0 | 4.0 | 0.00 | 0.65 | 0.63 | 95 | 1017.1 |
| 20260902034647 | 67 | 100 | 2.0 | 4.0 | 0.00 | 0.65 | 0.63 | 95 | 1017.0 |
| 20260902034425 | 67 | 100 | 2.0 | 4.0 | 0.00 | 0.65 | 0.63 | 95 | 1016.9 |
| 20260902034123 | 67 | 100 | 1.0 | 4.0 | 0.00 | 0.65 | 0.63 | 95 | 1016.8 |
| 20260902033951 | 67 | 100 | 1.0 | 4.0 | 0.00 | 0.65 | 0.63 | 95 | 1016.8 |
| 20260902033627 | 67 | 100 | 1.0 | 4.0 | 0.00 | 0.65 | 0.63 | 95 | 1016.7 |
| 20260902033408 | 67 | 100 | 2.0 | 4.0 | 0.00 | 0.65 | 0.63 | 95 | 1016.7 |
| 20260902033106 | 67 | 100 | 2.0 | 4.0 | 0.00 | 0.65 | 0.63 | 95 | 1016.7 |
| 20260902032907 | 67 | 100 | 3.0 | 4.0 | 0.00 | 0.65 | 0.63 | 95 | 1016.7 |
| 20260902032605 | 67 | 107 | 1.0 | 7.0 | 0.00 | 0.65 | 0.63 | 95 | 1016.7 |
| 20260902032406 | 67 | 107 | 1.0 | 7.0 | 0.00 | 0.65 | 0.63 | 95 | 1016.8 |
| 20260902032131 | 67 | 107 | 3.0 | 8.0 | 0.00 | 0.65 | 0.63 | 95 | 1016.7 |
| 20260902031909 | 67 | 108 | 2.0 | 9.0 | 0.00 | 0.65 | 0.63 | 95 | 1016.6 |
| 20260902031606 | 67 | 53 | 4.0 | 10.0 | 0.00 | 0.65 | 0.63 | 95 | 1016.4 |
| 20260902031413 | 67 | 104 | 5.0 | 10.0 | 0.00 | 0.65 | 0.63 | 95 | 1016.3 |
| 20260902031112 | 67 | 98 | 5.0 | 10.0 | 0.00 | 0.65 | 0.63 | 95 | 1016.2 |
| 20260902030911 | 67 | 113 | 3.0 | 8.0 | 0.00 | 0.65 | 0.63 | 95 | 1016.2 |
| 20260902030609 | 68 | 96 | 2.0 | 7.0 | 0.00 | 0.65 | 0.63 | 95 | 1016.2 |
| 20260902030409 | 68 | 96 | 2.0 | 7.0 | 0.00 | 0.65 | 0.63 | 95 | 1016.3 |
| 20260902030134 | 68 | 96 | 2.0 | 7.0 | 0.00 | 0.65 | 0.63 | 95 | 1016.2 |
| 20260902025940 | 68 | 96 | 1.0 | 4.0 | 0.00 | 0.65 | 0.63 | 95 | 1016.3 |
| 20260902025613 | 68 | 96 | 2.0 | 5.0 | 0.00 | 0.65 | 0.63 | 95 | 1016.2 |
| 20260902025418 | 68 | 96 | 2.0 | 5.0 | 0.00 | 0.65 | 0.63 | 95 | 1016.3 |
| 20260902025112 | 68 | 67 | 0.0 | 7.0 | 0.00 | 0.65 | 0.63 | 95 | 1016.3 |
| 20260902024916 | 68 | 67 | 2.0 | 9.0 | 0.00 | 0.65 | 0.63 | 95 | 1016.3 |
| 20260902024610 | 68 | 89 | 4.0 | 9.0 | 0.00 | 0.65 | 0.63 | 95 | 1016.2 |
| 20260902024421 | 68 | 62 | 3.0 | 9.0 | 0.00 | 0.65 | 0.63 | 95 | 1016.2 |
| 20260902024135 | 68 | 97 | 3.0 | 7.0 | 0.00 | 0.65 | 0.63 | 95 | 1016.2 |
| 20260902023928 | 68 | 101 | 2.0 | 6.0 | 0.00 | 0.65 | 0.63 | 95 | 1016.2 |
| 20260902023641 | 68 | 105 | 2.0 | 6.0 | 0.00 | 0.65 | 0.63 | 95 | 1016.2 |
| 20260902023430 | 68 | 71 | 2.0 | 6.0 | 0.00 | 0.65 | 0.63 | 95 | 1016.2 |
| 20260902023123 | 68 | 64 | 3.0 | 6.0 | 0.00 | 0.65 | 0.63 | 95 | 1016.1 |
| 20260902022907 | 68 | 56 | 3.0 | 7.0 | 0.00 | 0.65 | 0.63 | 95 | 1016.0 |
| 20260902022621 | 69 | 119 | 3.0 | 7.0 | 0.00 | 0.65 | 0.63 | 95 | 1016.0 |
| 20260902022406 | 69 | 54 | 1.0 | 8.0 | 0.00 | 0.65 | 0.63 | 95 | 1015.9 |
| 20260902022119 | 69 | 54 | 3.0 | 8.0 | 0.00 | 0.65 | 0.63 | 95 | 1015.9 |
| 20260902021929 | 69 | 52 | 3.0 | 8.0 | 0.00 | 0.65 | 0.63 | 95 | 1015.8 |
| 20260902021623 | 69 | 112 | 1.0 | 4.0 | 0.00 | 0.65 | 0.63 | 95 | 1015.7 |
| 20260902021429 | 69 | 112 | 2.0 | 4.0 | 0.00 | 0.65 | 0.63 | 96 | 1015.6 |
| 20260902021128 | 69 | 113 | 0.0 | 6.0 | 0.00 | 0.65 | 0.63 | 96 | 1015.5 |
| 20260902020912 | 69 | 113 | 1.0 | 7.0 | 0.00 | 0.65 | 0.63 | 95 | 1015.4 |
| 20260902020627 | 69 | 113 | 1.0 | 7.0 | 0.00 | 0.65 | 0.63 | 96 | 1015.3 |
| 20260902020419 | 69 | 113 | 3.0 | 7.0 | 0.00 | 0.65 | 0.63 | 95 | 1015.2 |
| 20260902020112 | 69 | 58 | 3.0 | 6.0 | 0.00 | 0.65 | 0.63 | 95 | 1015.2 |
| 20260902015917 | 69 | 64 | 2.0 | 5.0 | 0.00 | 0.65 | 0.63 | 95 | 1015.2 |
| 20260902015611 | 69 | 64 | 1.0 | 5.0 | 0.00 | 0.65 | 0.63 | 95 | 1015.1 |
| 20260902015416 | 69 | 64 | 2.0 | 5.0 | 0.00 | 0.65 | 0.63 | 95 | 1015.1 |
| 20260902015110 | 70 | 65 | 2.0 | 5.0 | 0.00 | 0.65 | 0.63 | 95 | 1015.0 |
| 20260902014921 | 70 | 65 | 2.0 | 5.0 | 0.00 | 0.65 | 0.63 | 95 | 1015.0 |
| 20260902014614 | 70 | 106 | 2.0 | 6.0 | 0.00 | 0.65 | 0.63 | 95 | 1015.0 |
| 20260902014419 | 70 | 106 | 2.0 | 6.0 | 0.00 | 0.65 | 0.63 | 95 | 1015.0 |
| 20260902014113 | 70 | 95 | 2.0 | 6.0 | 0.00 | 0.65 | 0.63 | 95 | 1015.0 |
| 20260902013918 | 70 | 96 | 3.0 | 8.0 | 0.00 | 0.65 | 0.63 | 95 | 1015.2 |
| 20260902013618 | 70 | 53 | 2.0 | 11.0 | 0.00 | 0.65 | 0.63 | 95 | 1015.1 |
| 20260902013439 | 70 | 53 | 3.0 | 11.0 | 0.00 | 0.65 | 0.63 | 95 | 1015.2 |
| 20260902013116 | 70 | 78 | 5.0 | 11.0 | 0.00 | 0.65 | 0.63 | 95 | 1015.3 |
| 20260902012924 | 71 | 96 | 3.0 | 7.0 | 0.00 | 0.65 | 0.63 | 95 | 1015.3 |
| 20260902012622 | 71 | 44 | 4.0 | 9.0 | 0.00 | 0.65 | 0.63 | 95 | 1015.0 |
| 20260902012420 | 71 | 74 | 2.0 | 9.0 | 0.00 | 0.65 | 0.63 | 95 | 1014.8 |
| 20260902012118 | 71 | 65 | 3.0 | 9.0 | 0.00 | 0.65 | 0.63 | 95 | 1014.9 |
| 20260902011946 | 72 | 56 | 3.0 | 9.0 | 0.00 | 0.65 | 0.63 | 96 | 1014.8 |
| 20260902011624 | 72 | 108 | 3.0 | 4.0 | 0.00 | 0.65 | 0.63 | 95 | 1014.6 |
| 20260902011423 | 72 | 90 | 3.0 | 4.0 | 0.00 | 0.65 | 0.63 | 95 | 1014.7 |
| 20260902011128 | 72 | 98 | 2.0 | 4.0 | 0.00 | 0.65 | 0.63 | 95 | 1014.6 |
| 20260902010928 | 72 | 123 | 2.0 | 4.0 | 0.00 | 0.65 | 0.63 | 95 | 1014.6 |
| 20260902010626 | 72 | 154 | 0.0 | 5.0 | 0.00 | 0.65 | 0.63 | 96 | 1014.6 |
| 20260902010405 | 72 | 154 | 1.0 | 5.0 | 0.00 | 0.65 | 0.63 | 96 | 1014.6 |
| 20260902010130 | 72 | 154 | 2.0 | 5.0 | 0.00 | 0.65 | 0.63 | 95 | 1014.6 |
| 20260902005930 | 72 | 154 | 3.0 | 7.0 | 0.00 | 0.65 | 0.63 | 96 | 1014.6 |
| 20260902005628 | 72 | 139 | 2.0 | 7.0 | 0.00 | 0.65 | 0.63 | 96 | 1014.5 |
| 20260902005434 | 72 | 108 | 2.0 | 11.0 | 0.00 | 0.65 | 0.63 | 96 | 1014.4 |
| 20260902005111 | 73 | 138 | 3.0 | 11.0 | 0.00 | 0.65 | 0.63 | 95 | 1014.2 |
| 20260902004912 | 73 | 148 | 2.0 | 11.0 | 0.00 | 0.65 | 0.63 | 95 | 1014.1 |
| 20260902004636 | 73 | 75 | 4.0 | 10.0 | 0.00 | 0.65 | 0.63 | 95 | 1013.9 |
| 20260902004416 | 73 | 87 | 3.0 | 8.0 | 0.00 | 0.65 | 0.63 | 95 | 1013.8 |
| 20260902004112 | 74 | 115 | 4.0 | 8.0 | 0.00 | 0.65 | 0.63 | 95 | 1013.8 |
| 20260902003920 | 74 | 98 | 3.0 | 7.0 | 0.00 | 0.65 | 0.63 | 95 | 1013.7 |